Orange, MA

2:56 PM EDT on May 23, 2018 (GMT -0400)
Orange Municipal

Weather History for KORE - December, 2013

Change the Weather History Date:

Sunday, December 1, 2013

  Actual Average Record
Temperature  
Mean Temperature 33 °F -  
Max Temperature 39 °F 40 °F 64 °F (2001)
Min Temperature 27 °F 21 °F 15 °F (2002)
Degree Days  
Heating Degree Days 32    
Moisture  
Dew Point 27 °F    
Average Humidity 81    
Maximum Humidity 89    
Minimum Humidity 72    
Precipitation  
Precipitation 0.00 in - - ()
Sea Level Pressure  
Sea Level Pressure 30.20 in    
Wind  
Wind Speed 1 mph (NNW)    
Max Wind Speed 6 mph    
Max Gust Speed -    
Visibility 10 miles    
Events Snow    
Averages and records for this station are not official NWS values.
T = Trace of Precipitation, MM = Missing Value Source: NWS Daily Summary

Daily Weather History Graph

Daily Weather History Graph

Search for Another Location

Airport or City:

Astronomy

Dec. 01, 2013 Rise Set
Actual Time 6:59 AM EST 4:16 PM EST
Civil Twilight 6:28 AM EST 4:48 PM EST
Nautical Twilight 5:53 AM EST 5:23 PM EST
Astronomical Twilight 5:19 AM EST 5:57 PM EST
Moon 5:12 AM EST (12/1) 3:25 PM EST (12/1)
Length of Visible Light 10h 20m
Length of Day
9h 17m
Waning Crescent, 2% of the Moon is Illuminated
Dec 1
Waning Crescent
Dec 2
New
Dec 9
First Quarter
Dec 17
Full
Dec 25
Last Quarter

Hourly Weather History & Observations

Time (EST) Temp. Windchill Dew Point Humidity Pressure Visibility Wind Dir Wind Speed Gust Speed Precip Events Conditions
12:45 AM 28.0 °F - 19.9 °F 72% 30.38 in 10.0 mi Calm Calm - N/A   Overcast
12:52 AM 28.0 °F - 19.9 °F 72% 30.40 in 10.0 mi Calm Calm - N/A   Overcast
1:00 AM 27.0 °F - 19.9 °F 75% 30.37 in 10.0 mi Calm Calm - N/A   Overcast
1:16 AM 28.0 °F - 19.9 °F 72% 30.36 in 10.0 mi Calm Calm - N/A   Overcast
1:31 AM 27.0 °F 23.0 °F 19.9 °F 75% 30.36 in 9.0 mi NW 3.5 mph - N/A   Overcast
1:45 AM 28.0 °F 24.2 °F 19.9 °F 72% 30.36 in 10.0 mi NNW 3.5 mph - N/A   Overcast
1:52 AM 28.0 °F - 19.9 °F 72% 30.38 in 10.0 mi Calm Calm - N/A   Overcast
2:32 AM 28.0 °F - 19.9 °F 72% 30.34 in 10.0 mi Calm Calm - N/A   Overcast
2:52 AM 28.0 °F - 21.0 °F 75% 30.35 in 10.0 mi Calm Calm - N/A   Overcast
3:18 AM 28.0 °F - 21.0 °F 75% 30.31 in 10.0 mi Calm Calm - N/A   Overcast
3:52 AM 28.0 °F - 21.0 °F 75% 30.32 in 7.0 mi Calm Calm - 0.00 in Snow Light Snow
4:52 AM 28.0 °F - 21.9 °F 78% 30.30 in 8.0 mi Calm Calm - 0.00 in   Overcast
5:52 AM 28.0 °F - 23.0 °F 81% 30.29 in 10.0 mi Calm Calm - 0.00 in   Overcast
6:52 AM 28.0 °F - 24.1 °F 85% 30.28 in 10.0 mi Calm Calm - 0.00 in   Overcast
7:52 AM 28.9 °F - 25.0 °F 85% 30.27 in 10.0 mi Calm Calm - N/A   Overcast
8:52 AM 30.0 °F - 26.1 °F 85% 30.25 in 10.0 mi Calm Calm - N/A   Overcast
9:36 AM 30.9 °F - 27.0 °F 85% 30.23 in 10.0 mi Calm Calm - N/A   Overcast
9:52 AM 32.0 °F - 27.0 °F 82% 30.25 in 10.0 mi Calm Calm - N/A   Overcast
10:21 AM 33.1 °F - 27.0 °F 78% 30.22 in 10.0 mi Calm Calm - N/A   Overcast
10:31 AM 33.1 °F - 27.0 °F 78% 30.21 in 10.0 mi Calm Calm - N/A   Overcast
10:52 AM 35.1 °F - 28.0 °F 76% 30.22 in 10.0 mi Calm Calm - N/A   Overcast
11:52 AM 36.0 °F - 28.9 °F 76% 30.18 in 10.0 mi Calm Calm - N/A   Overcast
12:35 PM 37.9 °F - 30.9 °F 76% 30.13 in 10.0 mi Calm Calm - N/A   Overcast
12:52 PM 37.9 °F - 30.9 °F 76% 30.14 in 10.0 mi Calm Calm - N/A   Overcast
1:52 PM 39.0 °F - 34.0 °F 82% 30.12 in 10.0 mi Calm Calm - N/A   Overcast
2:52 PM 39.0 °F - 33.1 °F 79% 30.10 in 10.0 mi Calm Calm - N/A   Overcast
3:52 PM 37.9 °F 35.5 °F 33.1 °F 83% 30.09 in 10.0 mi WNW 3.5 mph - N/A   Overcast
4:02 PM 37.9 °F - 33.1 °F 83% 30.07 in 10.0 mi Calm Calm - N/A   Overcast
4:52 PM 37.0 °F - 33.1 °F 86% 30.09 in 10.0 mi Calm Calm - N/A   Overcast
5:52 PM 36.0 °F - 32.0 °F 86% 30.09 in 10.0 mi Calm Calm - N/A   Overcast
6:52 PM 35.1 °F - 32.0 °F 89% 30.08 in 10.0 mi Calm Calm - N/A   Overcast
7:32 PM 35.1 °F - 32.0 °F 89% 30.05 in 10.0 mi Calm Calm - N/A   Overcast
7:52 PM 36.0 °F 31.1 °F 33.1 °F 89% 30.08 in 9.0 mi NW 5.8 mph - N/A   Overcast
8:24 PM 37.0 °F 32.4 °F 33.1 °F 86% 30.05 in 10.0 mi NE 5.8 mph - N/A   Overcast
8:52 PM 36.0 °F - 33.1 °F 89% 30.06 in 10.0 mi Calm Calm - N/A   Overcast
9:52 PM 36.0 °F - 33.1 °F 89% 30.06 in 10.0 mi Calm Calm - N/A   Overcast
10:52 PM 35.1 °F 32.2 °F 32.0 °F 89% 30.05 in 10.0 mi ENE 3.5 mph - N/A   Overcast
11:42 PM 35.1 °F - 32.0 °F 89% 30.01 in 10.0 mi Calm Calm - N/A   Overcast
11:52 PM 36.0 °F - 32.0 °F 86% 30.03 in 10.0 mi Calm Calm - N/A   Overcast